• En España
  • Lista de países
  • Para 7 días
  • Temperatura del agua
  • Mapa Satelital
  • El tiempo en el mapa
  • Informadores
  • user-avatar
    Iniciar sesión

    Tiempo cada hora Golden Sands

    Hoy, 13 Noviembre, Martes

    Tiempo Temperatura Precipitaciones Viento Presión Humedad
    00:00 +10°C° 0 mm 7 mps 772 mmHg 79%
    01:00 +10°C° 0 mm 7 mps 772 mmHg 79%
    02:00 +10°C° 0 mm 7 mps 772 mmHg 80%
    03:00 +10°C° 0 mm 7 mps 772 mmHg 79%
    04:00 +9°C° 0 mm 7 mps 772 mmHg 78%
    05:00 +9°C° 0 mm 7 mps 772 mmHg 77%
    06:00 +9°C° 0 mm 7 mps 772 mmHg 76%
    07:00 +9°C° 0 mm 7 mps 772 mmHg 76%
    08:00 +9°C° 0 mm 7 mps 773 mmHg 75%
    09:00 +9°C° 0 mm 7 mps 773 mmHg 74%
    10:00 +9°C° 0 mm 7 mps 773 mmHg 72%
    11:00 +9°C° 0 mm 7 mps 773 mmHg 71%
    12:00 +9°C° 0 mm 7 mps 773 mmHg 69%
    13:00 +9°C° 0 mm 7 mps 773 mmHg 68%
    14:00 +10°C° 0 mm 7 mps 773 mmHg 67%
    15:00 +9°C° 0 mm 7 mps 773 mmHg 69%
    16:00 +9°C° 0 mm 6 mps 772 mmHg 70%
    17:00 +8°C° 0 mm 6 mps 772 mmHg 72%
    18:00 +8°C° 0 mm 6 mps 772 mmHg 73%
    19:00 +7°C° 0 mm 6 mps 772 mmHg 75%
    20:00 +7°C° 0 mm 6 mps 772 mmHg 76%
    21:00 +6°C° 0 mm 5 mps 772 mmHg 77%
    22:00 +6°C° 0 mm 5 mps 772 mmHg 78%
    23:00 +6°C° 0 mm 4 mps 772 mmHg 80%

    Mañana, 14 Noviembre, Miércoles

    Tiempo Temperatura Precipitaciones Viento Presión Humedad
    00:00 +5°C° 0 mm 4 mps 772 mmHg 80%
    01:00 +5°C° 0 mm 4 mps 771 mmHg 81%
    02:00 +5°C° 0 mm 3 mps 771 mmHg 82%
    03:00 +5°C° 0 mm 3 mps 771 mmHg 83%
    04:00 +5°C° 0 mm 3 mps 770 mmHg 84%
    05:00 +4°C° 0 mm 3 mps 770 mmHg 85%
    06:00 +5°C° 0 mm 3 mps 770 mmHg 84%
    07:00 +6°C° 0 mm 2 mps 770 mmHg 83%
    08:00 +6°C° 0 mm 2 mps 770 mmHg 82%
    09:00 +7°C° 0 mm 2 mps 769 mmHg 77%
    10:00 +8°C° 0 mm 2 mps 769 mmHg 72%
    11:00 +9°C° 0 mm 2 mps 769 mmHg 67%
    12:00 +9°C° 0 mm 2 mps 769 mmHg 65%
    13:00 +10°C° 0 mm 2 mps 769 mmHg 62%
    14:00 +11°C° 0 mm 1 mps 768 mmHg 59%
    15:00 +10°C° 0 mm 2 mps 768 mmHg 61%
    16:00 +9°C° 0 mm 2 mps 768 mmHg 63%
    17:00 +9°C° 0 mm 2 mps 767 mmHg 65%
    18:00 +9°C° 0 mm 2 mps 767 mmHg 66%
    19:00 +9°C° 0 mm 2 mps 767 mmHg 67%
    20:00 +9°C° 0 mm 2 mps 767 mmHg 68%
    21:00 +9°C° 0 mm 2 mps 767 mmHg 69%
    22:00 +9°C° 0 mm 2 mps 767 mmHg 70%
    23:00 +9°C° 0 mm 2 mps 767 mmHg 70%

    Pasado mañana, 15 Noviembre, Jueves

    Tiempo Temperatura Precipitaciones Viento Presión Humedad
    00:00 +9°C° 0 mm 2 mps 767 mmHg 72%
    01:00 +9°C° 0 mm 3 mps 766 mmHg 73%
    02:00 +8°C° 0 mm 3 mps 766 mmHg 75%
    03:00 +7°C° 0.3 mm 4 mps 766 mmHg 77%
    04:00 +7°C° 0.3 mm 4 mps 765 mmHg 80%
    05:00 +6°C° 0.3 mm 5 mps 765 mmHg 82%
    06:00 +5°C° 0.4 mm 6 mps 765 mmHg 82%
    07:00 +5°C° 0.4 mm 7 mps 766 mmHg 82%
    08:00 +5°C° 0.4 mm 7 mps 766 mmHg 82%
    09:00 +6°C° 0.1 mm 8 mps 766 mmHg 78%
    10:00 +7°C° 0.1 mm 8 mps 766 mmHg 74%
    11:00 +9°C° 0.1 mm 8 mps 766 mmHg 70%
    12:00 +9°C° 0.1 mm 8 mps 766 mmHg 67%
    13:00 +10°C° 0.1 mm 8 mps 765 mmHg 65%
    14:00 +10°C° 0.1 mm 8 mps 765 mmHg 62%
    15:00 +10°C° 0.3 mm 9 mps 765 mmHg 65%
    16:00 +8°C° 0.3 mm 9 mps 765 mmHg 67%
    17:00 +7°C° 0.3 mm 9 mps 765 mmHg 70%
    18:00 +7°C° 0.5 mm 9 mps 766 mmHg 72%
    19:00 +7°C° 0.5 mm 9 mps 766 mmHg 74%
    20:00 +6°C° 0.5 mm 10 mps 766 mmHg 76%
    21:00 +6°C° 0.4 mm 10 mps 766 mmHg 76%
    22:00 +6°C° 0.4 mm 10 mps 766 mmHg 77%
    23:00 +6°C° 0.4 mm 10 mps 767 mmHg 78%

    16 Noviembre, Viernes

    Tiempo Temperatura Precipitaciones Viento Presión Humedad
    00:00 +5°C° 0.2 mm 10 mps 767 mmHg 79%
    01:00 +5°C° 0.2 mm 10 mps 767 mmHg 80%
    02:00 +3°C° 0.2 mm 10 mps 767 mmHg 80%
    03:00 +3°C° 0.2 mm 10 mps 767 mmHg 80%
    04:00 +3°C° 0.2 mm 10 mps 767 mmHg 79%
    05:00 +3°C° 0.2 mm 11 mps 767 mmHg 79%
    06:00 +2°C° 0.2 mm 11 mps 767 mmHg 78%
    07:00 +2°C° 0.2 mm 11 mps 768 mmHg 77%
    08:00 +2°C° 0.2 mm 11 mps 768 mmHg 76%
    09:00 +2°C° 0.2 mm 11 mps 768 mmHg 73%
    10:00 +3°C° 0.2 mm 11 mps 769 mmHg 70%
    11:00 +3°C° 0.2 mm 11 mps 769 mmHg 67%
    12:00 +4°C° 0.2 mm 11 mps 769 mmHg 66%
    13:00 +4°C° 0.2 mm 11 mps 769 mmHg 65%
    14:00 +4°C° 0.2 mm 11 mps 769 mmHg 64%
    15:00 +3°C° 0.1 mm 11 mps 769 mmHg 66%
    16:00 +3°C° 0.1 mm 11 mps 769 mmHg 68%
    17:00 +2°C° 0.1 mm 11 mps 769 mmHg 69%
    18:00 +2°C° 0.1 mm 11 mps 770 mmHg 70%
    19:00 +2°C° 0.1 mm 10 mps 770 mmHg 70%
    20:00 +2°C° 0.1 mm 10 mps 770 mmHg 71%
    21:00 +2°C° 0 mm 10 mps 770 mmHg 70%
    22:00 +1°C° 0 mm 10 mps 770 mmHg 69%
    23:00 +1°C° 0 mm 10 mps 771 mmHg 68%

    17 Noviembre, Sábado

    Tiempo Temperatura Precipitaciones Viento Presión Humedad
    00:00 +1°C° 0.1 mm 10 mps 771 mmHg 69%
    01:00 +1°C° 0.1 mm 10 mps 771 mmHg 69%
    02:00 +1°C° 0.1 mm 10 mps 771 mmHg 70%
    03:00 0°C° 0.1 mm 10 mps 771 mmHg 70%
    04:00 0°C° 0.1 mm 10 mps 771 mmHg 71%
    05:00 0°C° 0.1 mm 10 mps 771 mmHg 71%
    06:00 0°C° 0 mm 10 mps 771 mmHg 70%
    07:00 0°C° 0 mm 9 mps 771 mmHg 70%
    08:00 -1°C° 0 mm 9 mps 772 mmHg 69%
    09:00 0°C° 0 mm 9 mps 772 mmHg 67%
    10:00 +1°C° 0 mm 9 mps 772 mmHg 64%
    11:00 +2°C° 0 mm 9 mps 772 mmHg 61%
    12:00 +2°C° 0 mm 8 mps 772 mmHg 60%
    13:00 +2°C° 0 mm 8 mps 772 mmHg 59%
    14:00 +4°C° 0 mm 8 mps 772 mmHg 59%
    15:00 +2°C° 0 mm 8 mps 772 mmHg 61%
    16:00 +3°C° 0 mm 7 mps 772 mmHg 63%
    17:00 +2°C° 0 mm 7 mps 772 mmHg 65%
    18:00 +2°C° 0 mm 7 mps 772 mmHg 66%
    19:00 +2°C° 0 mm 6 mps 772 mmHg 67%
    20:00 +1°C° 0 mm 6 mps 772 mmHg 69%
    21:00 +1°C° 0 mm 6 mps 772 mmHg 70%
    22:00 +1°C° 0 mm 6 mps 772 mmHg 71%
    23:00 +1°C° 0 mm 6 mps 772 mmHg 72%

    18 Noviembre, Domingo

    Tiempo Temperatura Precipitaciones Viento Presión Humedad
    00:00 +1°C° 0 mm 6 mps 772 mmHg 71%
    01:00 +1°C° 0 mm 6 mps 771 mmHg 70%
    02:00 +1°C° 0 mm 6 mps 771 mmHg 69%
    03:00 +1°C° 0 mm 6 mps 771 mmHg 68%
    04:00 +1°C° 0 mm 6 mps 771 mmHg 68%
    05:00 -1°C° 0 mm 6 mps 771 mmHg 67%
    06:00 -1°C° 0 mm 6 mps 770 mmHg 67%
    07:00 0°C° 0 mm 5 mps 770 mmHg 67%
    08:00 0°C° 0 mm 5 mps 770 mmHg 67%
    09:00 +1°C° 0 mm 5 mps 770 mmHg 61%
    10:00 +3°C° 0 mm 5 mps 770 mmHg 55%
    11:00 +5°C° 0 mm 5 mps 770 mmHg 49%
    12:00 +6°C° 0 mm 4 mps 769 mmHg 47%
    13:00 +8°C° 0 mm 3 mps 768 mmHg 44%
    14:00 +8°C° 0 mm 3 mps 767 mmHg 42%
    15:00 +8°C° 0 mm 2 mps 767 mmHg 44%
    16:00 +7°C° 0 mm 2 mps 766 mmHg 46%
    17:00 +7°C° 0 mm 1 mps 765 mmHg 48%
    18:00 +7°C° 0 mm 1 mps 765 mmHg 50%
    19:00 +7°C° 0 mm 1 mps 764 mmHg 51%
    20:00 +6°C° 0 mm 1 mps 764 mmHg 53%
    21:00 +6°C° 0 mm 1 mps 763 mmHg 55%
    22:00 +6°C° 0 mm 1 mps 763 mmHg 57%
    23:00 +6°C° 0 mm 1 mps 762 mmHg 59%
    Mostrar más